Regional Weather Roundup
Issued by NWS

Home | Current Version | Previous Version | Text Only | Print | Product List | Glossary Off
Versions: 1 2 3 4 5 6 7 8 9 10 11 12 13 14 15 16 17 18 19 20 21 22 23 24 25 26 27 28 29 30 31 32 33 34 35 36 37 38 39 40 41 42 43 44 45 46 47 48 49 50

000
ASUS43 KIND 302009
RWRIN

WEATHER ROUNDUP FOR INDIANA
NATIONAL WEATHER SERVICE INDIANAPOLIS IN
400 PM EDT TUE JUN 30 2015

NOTE: "FAIR" INDICATES FEW OR NO CLOUDS BELOW 12,000 FEET WITH NO
SIGNIFICANT WEATHER AND/OR OBSTRUCTIONS TO VISIBILITY.

* - STATION DOES NOT REPORT WEATHER SUCH AS PRECIPITATION OR FOG.

+ - STATION NOT QUALITY CONTROLLED BY THE NATIONAL WEATHER SERVICE.
    USE DATA WITH CAUTION...ESPECIALLY DEWPOINT AND RELATIVE
    HUMIDITY OBSERVATIONS.

INZ001>003-010>013-019-020-302100-
NORTHWEST INDIANA

CITY           SKY/WX    TMP DP  RH WIND       PRES   REMARKS
GARY /AIRPORT/ PTSUNNY  N/A N/A N/A NE8       29.84R
KNOX *+        SUNNY     75  59  57 N9        29.80R
LA PORTE +     SUNNY     73  62  68 N10       29.82S
MICHIGAN CITY+ SUNNY     70  59  68 N7        29.83S
MONTICELLO +   MOSUNNY   79  64  59 W9        29.80S
RENSSELAER +   MOSUNNY   79  63  57 W9G17     29.81S
VALPARAISO     SUNNY     75  61  61 N9        29.82R

$$

LMZ046-743>745-302100-
SOUTHERN LAKE MICHIGAN

STATION/POSITION TIME  TEMP    WIND        PRES    WAVE
                       AIR SEA DIR/SP/G            HT
                 (UTC) (F)     (DEG/KT/KT) (MB)    (FT)
BURNS HARBOR     2000   65      50/ 10/ 12 1010.8R
MICHIGAN CITY    2000   62      30/  8/  9   N/A
5NW MICH CITY    2000   63 65   80/  6/  8   N/A     1

$$

INZ004-005-014>016-021>024-302100-
NORTH CENTRAL INDIANA

CITY           SKY/WX    TMP DP  RH WIND       PRES   REMARKS
ELKHART        MOSUNNY   73  59  60 NW12G21   29.81S
GOSHEN         MOSUNNY   75  63  66 NW14      29.79S
LOGANSPORT +   SUNNY     79  54  41 W10       29.81S
PERU/GRISSOM   MOSUNNY   79  62  57 NW10      29.79S
ROCHESTER +    MOSUNNY   79  63  57 W8        29.80F
SOUTH BEND     MOSUNNY   72  60  66 NW13G21   29.82S
WARSAW +         N/A     73  61  64 W12       29.79F

$$

INZ006>009-017-018-025>027-302100-
NORTHEAST INDIANA

CITY           SKY/WX    TMP DP  RH WIND       PRES   REMARKS
ANGOLA *+      PTSUNNY   75  64  69 W6        29.78F
AUBURN +       MOSUNNY   75  63  64 W6        29.79F
FORT WAYNE     PTSUNNY   76  64  66 NW8       29.79S
HUNTINGTON +   PTSUNNY   78  64  62 W8        29.78F

$$

INZ028-029-035-036-043>045-051>053-302100-
WEST CENTRAL INDIANA

CITY           SKY/WX    TMP DP  RH WIND       PRES   REMARKS
CRAWFORDSVL +  MOSUNNY   78  60  53 SW9G17    29.82S
GREENCASTLE +  MOSUNNY   77  61  57 W5        29.82F
LAFAYETTE      MOSUNNY   79  63  57 NW13      29.80S
TERRE HAUTE    SUNNY     83  65  54 W13G18    29.82F

$$

INZ030>032-037>040-046>048-054>057-064-065-302100-
CENTRAL INDIANA

CITY           SKY/WX    TMP DP  RH WIND       PRES   REMARKS
ANDERSON       PTSUNNY   79 N/A N/A W12G17    29.82S
CP ATTERBURY + MOSUNNY   81  64  57 NW9G16    29.81F
COLUMBUS         N/A     82  63  51 W13       29.81
FRANKFORT +    MOSUNNY   80  64  56 W12       29.83S
GREENWOOD *+   MOSUNNY   79  61  53 W9G18     29.82F
INDIANAPOLIS   PTSUNNY   80  62  54 W14       29.80F
-EAGLE CREEK   SUNNY     81  64  56 NW12      29.80F
KOKOMO *+      MOSUNNY   79  63  57 W15       29.79F
MARION +       MOSUNNY   77  59  54 W10       29.81S
MT COMFORT *+  SUNNY     81  50  34 W16       29.81F
SHELBYVILLE    MOSUNNY   82  65  56 W13G20    29.80F
ZIONSVILLE +   MOSUNNY   80  61  51 W10       29.81F

$$

INZ033-034-041-042-049-050-058-059-302100-
EAST CENTRAL INDIANA

CITY           SKY/WX    TMP DP  RH WIND       PRES   REMARKS
MUNCIE         MOSUNNY   79  61  53 W12       29.80F

$$

INZ060-061-067>069-081>083-085>088-302100-
SOUTHWEST INDIANA

CITY           SKY/WX    TMP DP  RH WIND       PRES   REMARKS
EVANSVILLE     MOSUNNY   83  68  60 W10       29.86F
HUNTINGBURG *+ MOSUNNY   82  66  57 W13       29.85S
WASHINGTON +   MOSUNNY   82  64  53 W10G17    29.83F

$$

INZ062-063-066-070>080-084-089>092-302100-
SOUTH CENTRAL AND SOUTHEAST INDIANA

CITY           SKY/WX    TMP DP  RH WIND       PRES   REMARKS
BLOOMINGTON    MOSUNNY   80  67  64 NW9G20    29.83S
MADISON *+     PTSUNNY   81  63  54 W12       29.84F
NORTH VERNON + PTSUNNY   77  72  83 S3        29.83S
SEYMOUR +      PTSUNNY   75  72  88 N5        29.81S THUNDER

$$



USA.gov is the U.S. government's official web portal to all federal, state and local government web resources and services.